STARLINK-36119, 67619

Orbit data source: Space-Track

STARLINK-36119, 67619 is a payload satellite owned by SpaceX/Seattle (US) in LEO that was launched on Fri, 30 Jan 2026 UTC via an FALCON 9 launch vehicle from the Air Force Eastern Test Range (AFETR). Payload-class satellites include a variety of spacecraft equipped with specific instruments for various scientific and technological missions. These include communications satellites like Starlink; space stations such as the ISS; scientific satellites like the Hubble; Earth observation satellites from companies like Planet Labs, Umbra, and HawkEye 360; GPS; miniature CubeSats for education and research; and military/defense satellites.

Loading next visibility...
Identifier
67619, 2026-020C
Orbit
LEO
Country
Flag of USUS
Related business
Manufacturer
SpaceX/Seattle
Mission
Operational Commercial Communications
Bus & Motor
STARLINK V2MO, Unknown motor
Mass
575 kg wet, ~530 kg dry
Launch date (UTC)
2026-01-30 (5 months ago)
Launch vehicle
FALCON 9
Launch site
Air Force Eastern Test Range (AFETR)
Object type
Payload
Rocket body
Debris
Shape & HBR
Box + 2 Pan, 17.7 m
Radar Cross Section
36.964 m², Large (>1 m²)

Expand to show TLE details & history
Last TLE update: 12 hours ago

TLE from 12 hours ago
0 STARLINK-36119
1 67619U 26020C   26171.36301757  .00021060  00000-0  77214-3 0  9991
2 67619  43.0039 280.1619 0002200 280.2501  79.8102 15.27600593 21816
Epoch: 2026-06-20T08:42Z
TLE epoch observation values (Epoch: 2026-06-20T08:42:44.718Z)
Latitude
-0.00004°
Longitude
-119.10319°
Altitude
482.497 km
Speed
7.626 km/s
True Right ascension
18h 40m 38s
True Declination
0° 00' 00"
Sunlit
Object was in full shadow at epoch
Visualization orbit readout
Latitude
Unknown
Longitude
Unknown
Altitude
Unknown
Speed
Unknown
Apparent Right ascension
Unknown
Apparent Declination
Unknown
Sunlit
N/A
Visualization observer readout
Local Sidereal Time
07:22:42
Azimuth
Unknown
Elevation
Unknown
Doppler factor
Unknown
Orbital elements
Apogee altitude
486.442 km
Perigee altitude
483.422 km
Semi-major axis
6,863.069 km
Eccentricity
0.00022
Inclination
43.0039°
RAAN
280.1619°
Arg. of periapsis
280.2501°
True anomaly
79.83501°
Mean anomaly
79.8102°
Eccentric anomaly
79.82261°
Mean motion
3.81738 °/min
Orbital period
94.31 mins
BSTAR
0.00077214
Loading maneuver chart data...
Computing Atmospheric mass density...
Loading historical data...
Loading historical data...
Loading historical data...
Loading historical data...
Loading historical data...
Loading historical data...
Loading historical data...

Documentation

Showing up to 5 results
|